Location: ?p Thanh B�nh
(16.5833°N, 107.5333°E)
Time: 05:51:13
(UTC+00:00)

Sylda 5 - Pass Details

Date: 29 October 2020
Orbit: 561 x 35543 km, 7.2° (Epoch: 27 November)

Event Time Altitude Azimuth Distance (km) Brightness Sun altitude
Exits shadow 20:41:35 29° 171° (S) 1,422 3.9 -30.3°
Maximum altitude 20:41:38 29° 170° (S) 1,430 4.0 -30.3°
Drops below altitude 10° 20:48:27 10° 110° (ESE) 4,156 7.1 -28.7°
Sets 20:56:05 0° 102° (ESE) 7,541 8.9 -26.9°
